User: anonymous   Login
Location: Bangkok
(13.7500°N, 100.5170°E)
Time: 14:57:04
(UTC+07:00)
Language:

ERBS - Orbit

View from above orbital plane
View from above orbital plane
View from above satellite
View from above satellite

Ground track
Ground track

The orbit data is extracted from the following two-line orbital elements,

1 15354U 84108B   15108.77868501  .00013071  00000-0  39019-3 0  9993
2 15354 057.0106 282.7982 0018294 059.8390 300.4471 15.34861347676432
Epoch (UTC): 18 April 2015 18:41:18
Eccentricity: 0.0018294
inclination: 57.0106°
perigee height: 449 km
apogee height: 474 km
right ascension of ascending node: 282.7982°
argument of perigee: 59.8390°
revolutions per day: 15.34861347
mean anomaly at epoch: 300.4471°
orbit number at epoch: 67643

The dashed part of the orbit path shows where the satellite is in the earth's shadow,  

DLR